• In Netherlands
  • List of Countries
  • For 7 days
  • Water Temperature
  • Satellite Maps
  • Weather Map
  • Weather Widgets
  • user-avatar
    Login

    Hourly Weather Mayrhofen

    Today, 14 August, Tuesday

    Time Temperature Precipitation Wind Pressure Humidity
    00:00 +11°C° 1.9 mm 1 mps 617 mmHg 96%
    01:00 +10°C° 0 mm 2 mps 617 mmHg 96%
    02:00 +10°C° 0.6 mm 2 mps 617 mmHg 96%
    03:00 +9°C° 0.6 mm 2 mps 617 mmHg 96%
    04:00 +9°C° 0.6 mm 2 mps 617 mmHg 96%
    05:00 +9°C° 0.2 mm 2 mps 617 mmHg 94%
    06:00 +11°C° 0.2 mm 1 mps 617 mmHg 93%
    07:00 +11°C° 0.2 mm 1 mps 618 mmHg 92%
    08:00 +12°C° 0.3 mm 1 mps 618 mmHg 87%
    09:00 +13°C° 0.3 mm 1 mps 619 mmHg 82%
    10:00 +14°C° 0.3 mm 1 mps 619 mmHg 76%
    11:00 +15°C° 0.4 mm 2 mps 620 mmHg 73%
    12:00 +16°C° 0.4 mm 2 mps 620 mmHg 70%
    13:00 +17°C° 0.4 mm 2 mps 620 mmHg 67%
    14:00 +16°C° 0.7 mm 2 mps 620 mmHg 71%
    15:00 +15°C° 0.7 mm 2 mps 620 mmHg 74%
    16:00 +15°C° 0.7 mm 2 mps 620 mmHg 78%
    17:00 +14°C° 0.6 mm 2 mps 620 mmHg 83%
    18:00 +13°C° 0.6 mm 2 mps 619 mmHg 88%
    19:00 +12°C° 0.6 mm 2 mps 619 mmHg 93%
    20:00 +10°C° 0.1 mm 2 mps 619 mmHg 94%
    21:00 +9°C° 0.1 mm 2 mps 620 mmHg 94%
    22:00 +9°C° 0.1 mm 2 mps 620 mmHg 95%
    23:00 +8°C° 0 mm 2 mps 620 mmHg 95%

    Tomorrow, 15 August, Wednesday

    Time Temperature Precipitation Wind Pressure Humidity
    00:00 +8°C° 0 mm 2 mps 620 mmHg 95%
    01:00 +7°C° 0 mm 2 mps 620 mmHg 95%
    02:00 +7°C° 0 mm 2 mps 619 mmHg 95%
    03:00 +7°C° 0 mm 2 mps 619 mmHg 95%
    04:00 +7°C° 0 mm 1 mps 619 mmHg 95%
    05:00 +8°C° 0 mm 1 mps 620 mmHg 94%
    06:00 +9°C° 0 mm 1 mps 620 mmHg 92%
    07:00 +10°C° 0 mm 1 mps 621 mmHg 90%
    08:00 +12°C° 0 mm 1 mps 622 mmHg 80%
    09:00 +14°C° 0 mm 2 mps 622 mmHg 70%
    10:00 +17°C° 0 mm 2 mps 623 mmHg 60%
    11:00 +17°C° 0 mm 2 mps 624 mmHg 56%
    12:00 +18°C° 0 mm 2 mps 624 mmHg 53%
    13:00 +19°C° 0 mm 2 mps 624 mmHg 50%
    14:00 +19°C° 0.1 mm 2 mps 624 mmHg 52%
    15:00 +19°C° 0.1 mm 2 mps 623 mmHg 53%
    16:00 +18°C° 0.1 mm 2 mps 623 mmHg 55%
    17:00 +17°C° 0.1 mm 2 mps 623 mmHg 65%
    18:00 +15°C° 0.1 mm 2 mps 622 mmHg 74%
    19:00 +14°C° 0.1 mm 1 mps 622 mmHg 84%
    20:00 +12°C° 0 mm 1 mps 622 mmHg 87%
    21:00 +11°C° 0 mm 1 mps 621 mmHg 91%
    22:00 +10°C° 0 mm 1 mps 621 mmHg 95%
    23:00 +9°C° 0 mm 1 mps 621 mmHg 95%

    Day after tomorrow, 16 August, Thursday

    Time Temperature Precipitation Wind Pressure Humidity
    00:00 +9°C° 0 mm 1 mps 621 mmHg 95%
    01:00 +9°C° 0 mm 1 mps 620 mmHg 95%
    02:00 +8°C° 0 mm 1 mps 620 mmHg 95%
    03:00 +8°C° 0 mm 1 mps 620 mmHg 94%
    04:00 +8°C° 0 mm 1 mps 620 mmHg 94%
    05:00 +9°C° 0 mm 1 mps 620 mmHg 90%
    06:00 +11°C° 0 mm 1 mps 621 mmHg 86%
    07:00 +12°C° 0 mm 1 mps 622 mmHg 82%
    08:00 +15°C° 0 mm 1 mps 622 mmHg 72%
    09:00 +16°C° 0 mm 0 mps 623 mmHg 61%
    10:00 +18°C° 0 mm 0 mps 624 mmHg 50%
    11:00 +21°C° 0 mm 1 mps 624 mmHg 48%
    12:00 +22°C° 0 mm 1 mps 624 mmHg 45%
    13:00 +23°C° 0 mm 1 mps 624 mmHg 43%
    14:00 +22°C° 0.1 mm 1 mps 623 mmHg 46%
    15:00 +22°C° 0.1 mm 1 mps 623 mmHg 49%
    16:00 +21°C° 0.1 mm 1 mps 622 mmHg 53%
    17:00 +19°C° 0.1 mm 1 mps 622 mmHg 63%
    18:00 +16°C° 0.1 mm 1 mps 621 mmHg 73%
    19:00 +14°C° 0.1 mm 0 mps 620 mmHg 83%
    20:00 +13°C° 0.1 mm 1 mps 620 mmHg 86%
    21:00 +12°C° 0.1 mm 1 mps 620 mmHg 89%
    22:00 +11°C° 0.1 mm 1 mps 620 mmHg 92%
    23:00 +11°C° 0 mm 1 mps 620 mmHg 92%

    17 August, Friday

    Time Temperature Precipitation Wind Pressure Humidity
    00:00 +11°C° 0 mm 1 mps 619 mmHg 92%
    01:00 +10°C° 0 mm 1 mps 619 mmHg 92%
    02:00 +10°C° 0 mm 1 mps 619 mmHg 92%
    03:00 +10°C° 0 mm 1 mps 619 mmHg 92%
    04:00 +9°C° 0 mm 1 mps 619 mmHg 92%
    05:00 +11°C° 0.1 mm 1 mps 619 mmHg 90%
    06:00 +12°C° 0.1 mm 1 mps 620 mmHg 87%
    07:00 +12°C° 0.1 mm 0 mps 620 mmHg 84%
    08:00 +15°C° 0.1 mm 1 mps 621 mmHg 75%
    09:00 +19°C° 0.1 mm 1 mps 622 mmHg 67%
    10:00 +21°C° 0.1 mm 1 mps 622 mmHg 58%
    11:00 +21°C° 1 mm 1 mps 622 mmHg 60%
    12:00 +20°C° 1 mm 1 mps 622 mmHg 62%
    13:00 +20°C° 1 mm 1 mps 622 mmHg 64%
    14:00 +18°C° 1.9 mm 2 mps 622 mmHg 70%
    15:00 +17°C° 1.9 mm 2 mps 621 mmHg 76%
    16:00 +16°C° 1.9 mm 2 mps 621 mmHg 82%
    17:00 +15°C° 2.1 mm 2 mps 621 mmHg 86%
    18:00 +14°C° 2.1 mm 2 mps 621 mmHg 90%
    19:00 +13°C° 2.1 mm 2 mps 621 mmHg 94%
    20:00 +12°C° 1.7 mm 2 mps 621 mmHg 95%
    21:00 +12°C° 1.7 mm 2 mps 621 mmHg 96%
    22:00 +10°C° 1.7 mm 2 mps 621 mmHg 96%
    23:00 +10°C° 0.7 mm 2 mps 621 mmHg 97%

    18 August, Saturday

    Time Temperature Precipitation Wind Pressure Humidity
    00:00 +10°C° 0.7 mm 2 mps 621 mmHg 97%
    01:00 +11°C° 0.7 mm 1 mps 621 mmHg 97%
    02:00 +11°C° 0.3 mm 1 mps 621 mmHg 97%
    03:00 +10°C° 0.3 mm 1 mps 621 mmHg 97%
    04:00 +10°C° 0.3 mm 1 mps 621 mmHg 97%
    05:00 +11°C° 0.6 mm 1 mps 622 mmHg 96%
    06:00 +11°C° 0.6 mm 1 mps 622 mmHg 95%
    07:00 +11°C° 0.6 mm 1 mps 622 mmHg 95%
    08:00 +12°C° 0.7 mm 1 mps 622 mmHg 92%
    09:00 +12°C° 0.7 mm 1 mps 623 mmHg 89%
    10:00 +13°C° 0.7 mm 1 mps 623 mmHg 87%
    11:00 +14°C° 0.3 mm 1 mps 623 mmHg 83%
    12:00 +15°C° 0.3 mm 1 mps 623 mmHg 79%
    13:00 +16°C° 0.3 mm 1 mps 623 mmHg 75%
    14:00 +16°C° 0.4 mm 1 mps 623 mmHg 75%
    15:00 +16°C° 0.4 mm 2 mps 623 mmHg 75%
    16:00 +16°C° 0.4 mm 2 mps 623 mmHg 75%
    17:00 +15°C° 0.5 mm 2 mps 623 mmHg 80%
    18:00 +14°C° 0.5 mm 1 mps 623 mmHg 86%
    19:00 +13°C° 0.5 mm 1 mps 623 mmHg 92%
    20:00 +12°C° 0.1 mm 1 mps 623 mmHg 93%
    21:00 +12°C° 0.1 mm 1 mps 623 mmHg 94%
    22:00 +11°C° 0.1 mm 1 mps 623 mmHg 96%
    23:00 +11°C° 0 mm 1 mps 623 mmHg 96%

    19 August, Sunday

    Time Temperature Precipitation Wind Pressure Humidity
    00:00 +11°C° 0 mm 1 mps 623 mmHg 96%
    01:00 +10°C° 0 mm 1 mps 623 mmHg 96%
    02:00 +10°C° 0 mm 1 mps 623 mmHg 96%
    03:00 +10°C° 0 mm 1 mps 622 mmHg 96%
    04:00 +9°C° 0 mm 1 mps 622 mmHg 96%
    05:00 +10°C° 0 mm 1 mps 623 mmHg 94%
    06:00 +11°C° 0 mm 1 mps 623 mmHg 92%
    07:00 +12°C° 0 mm 1 mps 623 mmHg 90%
    08:00 +14°C° 0 mm 1 mps 624 mmHg 82%
    09:00 +15°C° 0 mm 1 mps 625 mmHg 73%
    10:00 +18°C° 0 mm 1 mps 625 mmHg 64%
    11:00 +19°C° 0 mm 1 mps 626 mmHg 61%
    12:00 +20°C° 0 mm 1 mps 626 mmHg 58%
    13:00 +19°C° 0 mm 2 mps 626 mmHg 55%
    14:00 +19°C° 0.1 mm 2 mps 625 mmHg 56%
    15:00 +19°C° 0.1 mm 2 mps 625 mmHg 57%
    16:00 +19°C° 0.1 mm 2 mps 625 mmHg 58%
    17:00 +17°C° 0.1 mm 2 mps 625 mmHg 67%
    18:00 +16°C° 0.1 mm 2 mps 624 mmHg 76%
    19:00 +14°C° 0.1 mm 1 mps 623 mmHg 84%
    20:00 +12°C° 0 mm 1 mps 623 mmHg 88%
    21:00 +11°C° 0 mm 1 mps 623 mmHg 91%
    22:00 +10°C° 0 mm 1 mps 623 mmHg 94%
    23:00 +10°C° 0 mm 1 mps 623 mmHg 94%
    Show more